Paris, IL

12:15 AM CDT on October 24, 2017 (GMT -0500)
Edgar County

Weather History for KPRG - October, 2013

Change the Weather History Date:

Thursday, October 17, 2013

  Actual Average (KHUF) Record (KHUF)
Temperature  
Mean Temperature 48 °F -  
Max Temperature 60 °F 64 °F 85 °F (1963)
Min Temperature 37 °F 42 °F 25 °F (1991)
Degree Days  
Heating Degree Days 16    
Moisture  
Dew Point 41 °F    
Average Humidity 80    
Maximum Humidity 98    
Minimum Humidity 41    
Precipitation  
Precipitation 0.00 in - - ()
Sea Level Pressure  
Sea Level Pressure 29.95 in    
Wind  
Wind Speed 5 mph (WSW)    
Max Wind Speed 17 mph    
Max Gust Speed 23 mph    
Visibility 10 miles    
Events Rain    
Averages and records for this station are not official NWS values.
T = Trace of Precipitation, MM = Missing Value Source: NWS Daily Summary

Daily Weather History Graph

Daily Weather History Graph

Search for Another Location

Airport or City:

Trip Planner

Search our weather history database for the weather conditions in past years. The results will help you decide how hot, cold, wet, or windy it might be!

Date:

Astronomy

Oct. 17, 2013 Rise Set
Actual Time 7:03 AM CDT 6:08 PM CDT
Civil Twilight 6:35 AM CDT 6:35 PM CDT
Nautical Twilight 6:04 AM CDT 7:06 PM CDT
Astronomical Twilight 5:33 AM CDT 7:37 PM CDT
Moon 5:22 PM CDT (10/17) 5:35 AM CDT (10/17)
Length of Visible Light 11h 59m
Length of Day
11h 04m
Waxing Gibbous, 98% of the Moon is Illuminated
Oct 17
Waxing Gibbous
Oct 18
Full
Oct 26
Last Quarter
Nov 3
New
Nov 9
First Quarter

Hourly Weather History & Observations

Time (CDT) Temp. Windchill Dew Point Humidity Pressure Visibility Wind Dir Wind Speed Gust Speed Precip Events Conditions
12:15 AM 40.1 °F 38.0 °F 38.8 °F 95% 29.99 in 10.0 mi West 3.5 mph - N/A   Clear
12:35 AM 40.1 °F 38.0 °F 38.5 °F 94% 29.99 in 10.0 mi West 3.5 mph - N/A   Clear
12:55 AM 40.1 °F 38.0 °F 38.7 °F 95% 29.98 in 10.0 mi West 3.5 mph - N/A   Clear
1:15 AM 39.2 °F - 37.6 °F 94% 29.98 in 10.0 mi Calm Calm - N/A   Clear
1:35 AM 37.8 °F - 36.9 °F 97% 29.99 in 10.0 mi Calm Calm - N/A   Clear
1:55 AM 39.0 °F - 38.1 °F 97% 29.98 in 10.0 mi Calm Calm - N/A   Clear
2:15 AM 39.2 °F - 38.5 °F 97% 29.97 in 10.0 mi Calm Calm - N/A   Clear
2:35 AM 39.2 °F - 38.3 °F 97% 29.97 in 10.0 mi Calm Calm - N/A   Clear
2:55 AM 39.6 °F - 38.8 °F 97% 29.97 in 10.0 mi Calm Calm - N/A   Clear
3:15 AM 41.0 °F - 40.5 °F 98% 29.96 in 10.0 mi Calm Calm - N/A   Scattered Clouds
3:35 AM 42.4 °F - 41.5 °F 97% 29.96 in 10.0 mi Calm Calm - N/A   Light Drizzle
3:55 AM 43.7 °F - 42.3 °F 95% 29.97 in 10.0 mi Calm Calm - N/A   Overcast
4:15 AM 44.1 °F 42.5 °F 42.8 °F 95% 29.97 in 10.0 mi WSW 3.5 mph - N/A   Overcast
4:35 AM 44.6 °F - 43.0 °F 94% 29.95 in 10.0 mi Calm Calm - N/A   Overcast
4:55 AM 44.6 °F - 43.2 °F 95% 29.94 in 10.0 mi Calm Calm - N/A   Overcast
5:15 AM 44.6 °F - 43.3 °F 95% 29.96 in 10.0 mi Calm Calm - N/A   Overcast
5:35 AM 44.8 °F - 43.7 °F 96% 29.96 in 10.0 mi Calm Calm - N/A   Overcast
5:55 AM 45.1 °F - 44.1 °F 96% 29.96 in 10.0 mi Calm Calm - N/A   Overcast
6:15 AM 45.0 °F - 43.7 °F 95% 29.94 in 10.0 mi Calm Calm - N/A   Overcast
6:35 AM 45.5 °F - 44.4 °F 96% 29.94 in 10.0 mi Calm Calm - N/A   Overcast
6:55 AM 45.5 °F - 44.2 °F 95% 29.94 in 10.0 mi Calm Calm - N/A   Overcast
7:15 AM 45.7 °F - 44.4 °F 95% 29.94 in 10.0 mi Calm Calm - N/A   Overcast
7:35 AM 45.9 °F - 44.6 °F 95% 29.95 in 10.0 mi Calm Calm - N/A   Overcast
7:55 AM 46.6 °F - 45.0 °F 94% 29.96 in 10.0 mi SW 3.5 mph - N/A Rain Light Rain
8:15 AM 47.1 °F - 45.3 °F 93% 29.96 in 7.0 mi SW 5.8 mph - N/A Rain Light Rain
8:35 AM 47.3 °F - 45.5 °F 93% 29.97 in 10.0 mi SW 5.8 mph - N/A Rain Rain
8:55 AM 47.3 °F - 45.9 °F 95% 29.96 in 10.0 mi WSW 4.6 mph - N/A Rain Light Rain
9:15 AM 47.8 °F - 46.4 °F 95% 29.96 in 10.0 mi SW 5.8 mph - N/A   Overcast
9:35 AM 48.9 °F - 47.3 °F 94% 29.96 in 10.0 mi SW 5.8 mph - N/A   Overcast
9:55 AM 49.1 °F - 46.9 °F 92% 29.96 in 10.0 mi WSW 6.9 mph - N/A   Overcast
10:15 AM 49.8 °F - 46.9 °F 90% 29.96 in 10.0 mi WSW 9.2 mph - N/A   Overcast
10:35 AM 49.5 °F - 46.6 °F 90% 29.97 in 10.0 mi WSW 9.2 mph - N/A   Overcast
10:55 AM 50.0 °F - 46.8 °F 89% 29.97 in 10.0 mi WSW 8.1 mph - N/A   Overcast
11:15 AM 50.7 °F - 46.9 °F 87% 29.96 in 10.0 mi WSW 10.4 mph - N/A   Overcast
11:35 AM 50.9 °F - 46.6 °F 85% 29.96 in 10.0 mi WSW 10.4 mph - N/A   Overcast
11:55 AM 51.4 °F - 46.0 °F 82% 29.96 in 10.0 mi West 10.4 mph 16.1 mph N/A   Overcast
12:15 PM 51.3 °F - 45.3 °F 80% 29.96 in 10.0 mi West 17.3 mph 23.0 mph N/A   Overcast
12:35 PM 52.0 °F - 45.9 °F 80% 29.95 in 10.0 mi West 10.4 mph 16.1 mph N/A   Overcast
12:55 PM 54.1 °F - 44.8 °F 71% 29.93 in 10.0 mi West 15.0 mph 21.9 mph N/A   Overcast
1:15 PM 54.5 °F - 42.8 °F 65% 29.92 in 10.0 mi West 15.0 mph - N/A   Mostly Cloudy
1:35 PM 57.6 °F - 43.3 °F 59% 29.92 in 10.0 mi West 16.1 mph - N/A   Mostly Cloudy
1:55 PM 57.6 °F - 41.5 °F 55% 29.92 in 10.0 mi WSW 13.8 mph 21.9 mph N/A   Mostly Cloudy
2:15 PM 59.0 °F - 42.1 °F 53% 29.92 in 10.0 mi WSW 13.8 mph 23.0 mph N/A   Mostly Cloudy
2:35 PM 57.4 °F - 40.5 °F 53% 29.92 in 10.0 mi WSW 12.7 mph 23.0 mph N/A   Mostly Cloudy
2:55 PM 57.9 °F - 39.9 °F 51% 29.92 in 10.0 mi West 16.1 mph 23.0 mph N/A   Scattered Clouds
3:15 PM 59.4 °F - 38.5 °F 46% 29.91 in 10.0 mi West 11.5 mph 20.7 mph N/A   Scattered Clouds
3:35 PM 59.5 °F - 37.9 °F 45% 29.91 in 10.0 mi West 11.5 mph 18.4 mph N/A   Mostly Cloudy
3:55 PM 60.3 °F - 36.5 °F 41% 29.91 in 10.0 mi West 16.1 mph 21.9 mph N/A   Mostly Cloudy
4:15 PM 59.9 °F - 36.5 °F 42% 29.91 in 10.0 mi West 16.1 mph - N/A   Mostly Cloudy
4:35 PM 59.7 °F - 37.0 °F 43% 29.91 in 10.0 mi West 15.0 mph 20.7 mph N/A   Scattered Clouds
4:55 PM 58.3 °F - 36.5 °F 44% 29.92 in 10.0 mi West 17.3 mph - N/A   Scattered Clouds
5:15 PM 58.1 °F - 37.0 °F 45% 29.91 in 10.0 mi WSW 10.4 mph - N/A   Scattered Clouds
5:35 PM 57.7 °F - 37.6 °F 47% 29.92 in 10.0 mi West 10.4 mph - N/A   Mostly Cloudy
5:55 PM 55.2 °F - 37.8 °F 52% 29.92 in 10.0 mi WSW 8.1 mph - N/A   Scattered Clouds
6:15 PM 52.2 °F - 38.1 °F 59% 29.92 in 10.0 mi SW 3.5 mph - N/A   Clear
6:35 PM 50.0 °F - 38.3 °F 64% 29.93 in 10.0 mi SW 5.8 mph - N/A   Clear
6:55 PM 48.0 °F - 38.3 °F 69% 29.94 in 10.0 mi SW 5.8 mph - N/A   Clear
7:15 PM 46.8 °F - 38.3 °F 72% 29.94 in 10.0 mi SSW 4.6 mph - N/A   Clear
7:35 PM 45.9 °F 42.9 °F 38.3 °F 75% 29.95 in 10.0 mi SSW 5.8 mph - N/A   Clear
7:55 PM 44.1 °F 40.8 °F 38.1 °F 80% 29.95 in 10.0 mi SSW 5.8 mph - N/A   Clear
8:15 PM 43.0 °F 40.3 °F 37.2 °F 80% 29.95 in 10.0 mi SSW 4.6 mph - N/A   Clear
8:35 PM 43.7 °F 42.1 °F 38.5 °F 82% 29.95 in 10.0 mi SSW 3.5 mph - N/A   Clear
8:55 PM 44.1 °F 40.8 °F 39.2 °F 83% 29.96 in 10.0 mi SSW 5.8 mph - N/A   Clear
9:15 PM 42.3 °F 39.4 °F 38.1 °F 85% 29.96 in 10.0 mi SSW 4.6 mph - N/A   Clear
9:35 PM 46.4 °F 44.3 °F 41.0 °F 81% 29.96 in 10.0 mi SSW 4.6 mph - N/A   Clear
9:55 PM 47.5 °F - 41.2 °F 79% 29.96 in 10.0 mi SSW 4.6 mph - N/A   Clear
10:15 PM 46.9 °F - 41.0 °F 80% 29.96 in 10.0 mi SSW 5.8 mph - N/A   Clear
10:35 PM 47.3 °F - 41.2 °F 79% 29.96 in 10.0 mi SSW 5.8 mph - N/A   Clear
10:55 PM 46.8 °F - 41.2 °F 81% 29.96 in 10.0 mi SSW 5.8 mph - N/A   Clear
11:15 PM 46.8 °F - 41.4 °F 81% 29.95 in 10.0 mi SSW 6.9 mph - N/A   Clear
11:35 PM 46.8 °F - 41.4 °F 81% 29.95 in 10.0 mi SSW 5.8 mph - N/A   Clear
11:55 PM 46.8 °F - 41.5 °F 82% 29.95 in 10.0 mi SSW 6.9 mph - N/A   Clear